EHI
0 2 8 10 9 7 10 14 14 13 11 8 8 9 7 5 4 3 2 1 0 0 0 0 0 0 0 0 0 0 0 0 1 1 1 0 0 0 1 0 0 1 1
0 2 7 9 8 7 9 12 13 12 11 9 9 9 7 6 4 2 2 1 0 0 0 0 0 0 0 0 0 0 0 0 0 0 0 0 0 0 1 0 0 0 1
0 1 5 9 8 7 8 10 10 10 9 9 9 9 8 7 5 2 1 0 0 0 0 0 0 0 0 0 0 0 0 0 0 0 0 0 0 0 0 0 0 0 0
0 1 5 10 11 8 7 8 9 9 8 8 9 9 9 7 5 3 1 1 0 0 1 1 0 0 0 0 0 0 0 0 0 0 0 0 0 0 0 0 0 0 0
0 0 5 12 13 9 7 8 9 8 8 8 8 8 8 6 5 4 2 1 1 1 1 1 1 1 0 0 0 0 0 0 0 0 0 0 0 1 2 2 1 1 0
0 0 5 12 13 9 7 8 8 7 6 6 5 6 6 5 4 3 2 1 2 2 1 1 1 2 1 0 0 0 0 0 0 0 0 0 0 1 4 5 4 2 1
0 0 3 8 9 7 7 7 6 5 4 4 3 4 4 3 2 1 0 1 2 2 1 1 1 2 1 0 0 0 0 0 0 0 0 0 0 1 3 5 5 3 2
0 0 1 4 6 6 6 7 6 5 4 4 4 3 2 2 1 0 0 1 2 2 1 0 1 2 2 1 0 1 1 1 1 0 0 0 0 0 1 3 3 2 2
0 0 0 2 3 4 5 6 6 5 5 5 5 3 2 3 2 1 0 0 1 2 2 1 1 2 3 2 1 2 3 3 1 0 0 0 0 0 0 1 1 1 2
0 0 0 0 1 1 3 4 4 4 4 4 4 3 3 4 3 2 0 0 2 3 3 2 2 3 4 3 3 4 5 3 1 0 0 0 0 0 0 0 0 1 2
0 0 0 0 0 0 1 2 2 2 1 1 1 1 1 2 2 1 1 1 2 3 3 3 3 3 3 3 3 4 4 3 1 0 0 0 0 1 1 1 1 1 1
0 0 0 0 0 0 0 0 0 0 0 0 0 0 0 0 1 1 1 2 2 2 2 2 2 2 1 1 1 1 2 2 1 0 0 1 1 1 2 3 3 3 3
0 0 0 0 0 0 0 0 0 0 0 0 1 1 1 1 1 1 1 1 1 1 1 1 1 1 0 0 0 0 0 0 0 0 1 2 2 2 2 4 5 6 6
0 0 0 0 0 0 0 0 0 0 0 0 1 2 1 1 1 1 0 1 1 0 0 0 0 0 0 0 0 0 0 0 0 0 1 2 3 2 3 4 6 8 8
0 0 0 0 0 0 0 0 0 0 0 0 0 1 1 1 1 1 1 2 2 1 1 1 0 0 0 0 0 0 0 0 0 0 1 2 3 3 4 5 6 6 5
0 0 0 0 0 0 0 0 0 0 0 0 0 1 2 2 2 2 3 3 3 3 2 2 1 0 0 0 0 0 0 0 0 0 0 1 1 2 3 4 5 3 2
0 0 0 1 1 1 1 1 2 1 1 1 0 1 2 3 3 3 3 3 3 3 2 2 2 1 0 0 0 0 0 0 0 0 0 0 0 1 2 3 3 1 0
0 1 1 2 2 2 3 3 3 2 2 1 0 0 1 2 3 3 3 3 2 1 1 2 2 1 0 0 0 0 0 0 0 0 0 0 0 1 2 3 3 1 1
1 1 2 3 3 3 4 4 3 2 1 1 0 0 0 1 2 3 3 2 1 0 1 3 2 1 0 0 0 0 0 0 0 0 0 0 1 2 3 3 3 3 2
1 2 3 3 3 3 3 4 3 2 1 0 0 0 0 0 1 2 2 1 1 1 2 3 2 1 1 0 0 0 0 0 0 0 0 0 1 3 3 3 3 3 3
2 3 3 3 3 3 3 3 3 2 1 0 0 0 0 0 1 1 1 1 2 3 3 2 3 3 2 1 1 0 0 0 0 0 1 1 2 3 3 3 3 3 3
3 3 3 3 3 3 4 4 4 2 1 0 0 0 0 0 1 2 2 2 3 3 3 3 3 3 3 2 1 0 0 0 0 1 2 3 3 3 3 3 3 3 3
4 4 3 3 2 3 4 5 4 2 0 0 0 0 0 1 2 3 3 3 3 3 3 3 3 2 2 2 1 0 0 0 0 1 2 3 3 3 3 3 3 3 2
3 3 3 2 1 2 3 4 4 2 1 0 0 1 1 2 3 3 3 2 2 2 2 2 1 1 1 1 0 0 0 0 0 1 1 2 3 3 3 3 3 3 2
1 1 1 0 0 1 3 4 4 3 2 1 1 2 2 2 2 2 1 1 1 1 1 1 0 0 0 1 1 1 1 1 1 1 1 1 2 2 3 3 3 3 3
0 0 0 0 0 1 3 5 5 4 2 1 1 2 2 1 1 1 0 0 0 0 0 0 0 0 1 2 2 2 2 2 1 1 0 0 1 1 2 3 3 3 3
Wind_Speed
3 3 7 6 6 7 7 7 8 8 9 10 10 10 10 9 9 9 9 9 9 9 9 9 8 8 8 8 8 8 7 8 8 8 9 9 9 9 9 10 9 7 10
2 3 6 5 5 6 7 7 8 9 10 10 10 10 10 10 9 9 8 8 8 8 8 8 8 8 8 7 7 7 7 7 8 8 8 8 8 9 9 9 10 6 11
1 2 4 4 4 6 7 8 8 8 10 10 10 10 10 9 9 8 8 8 8 7 7 7 7 7 7 7 7 8 7 7 7 7 7 4 5 8 8 9 9 9 10
1 1 2 4 5 6 7 7 7 7 9 10 10 9 9 9 8 8 7 7 7 6 6 6 6 6 6 7 7 7 7 7 7 7 4 3 4 6 8 9 9 9 9
0 1 2 5 6 6 6 6 6 6 8 9 9 9 8 8 7 7 6 6 6 5 5 5 5 5 5 6 7 7 7 7 7 5 3 3 3 6 7 8 9 9 9
1 1 2 4 5 6 6 6 5 5 6 8 9 9 8 7 6 5 5 5 5 5 5 5 5 5 5 6 6 6 6 6 6 4 3 3 3 6 7 8 8 9 9
1 2 2 2 5 5 5 5 5 5 6 7 8 8 7 7 6 5 5 5 5 5 5 5 5 4 5 5 6 6 6 6 4 4 3 3 4 7 8 9 9 9 9
1 1 2 1 3 4 4 4 4 5 5 6 7 7 6 6 5 4 4 4 4 4 4 4 4 5 5 6 6 6 7 6 5 4 4 4 6 8 9 10 9 9 9
2 2 2 2 1 2 3 3 3 4 4 5 5 6 6 5 4 3 2 2 2 3 3 4 5 5 5 6 6 6 6 6 4 3 5 4 8 10 10 10 10 9 10
3 3 2 2 2 1 1 1 3 3 3 4 4 4 5 4 4 3 1 2 2 2 2 3 4 4 4 4 5 5 6 5 3 4 3 5 9 9 10 10 10 10 9
2 2 2 2 1 1 1 1 2 2 3 2 2 3 2 1 1 1 0 1 1 2 2 3 4 4 3 4 3 3 3 2 3 3 3 6 9 10 10 9 9 9 9
1 2 2 2 2 2 1 2 2 2 2 2 2 2 2 2 1 1 1 1 1 1 1 2 2 2 1 0 1 2 0 2 2 2 3 6 8 9 10 10 9 9 9
1 1 1 1 2 2 2 2 2 1 2 2 2 2 2 2 1 2 1 1 2 2 2 2 1 0 1 1 1 1 1 1 1 1 2 5 6 8 9 8 8 8 8
1 2 2 2 2 2 2 2 2 2 1 1 1 2 2 1 1 1 1 1 2 1 1 2 1 1 1 1 2 1 1 1 1 1 2 5 5 6 7 8 7 7 7
1 1 2 2 2 2 2 1 2 1 1 1 1 1 1 1 1 1 1 1 1 1 1 1 1 1 1 1 1 1 1 1 1 1 1 3 5 6 7 7 7 7 7
1 1 2 2 2 2 2 2 1 1 1 1 1 1 1 1 1 1 1 1 1 1 1 1 1 1 1 1 1 1 1 1 1 1 1 1 3 4 5 6 7 7 7
1 1 2 2 3 3 2 2 2 1 1 1 1 2 1 1 1 1 1 1 1 1 1 1 2 2 1 1 1 1 1 1 0 1 1 1 1 2 3 5 6 7 7
2 2 1 2 3 3 2 2 2 2 2 1 1 1 1 2 2 1 1 1 1 1 1 1 1 2 2 1 1 1 1 1 0 0 0 0 0 1 2 3 4 6 7
2 2 2 2 3 3 3 3 2 2 2 1 1 1 2 2 2 2 1 1 1 1 1 1 2 1 1 1 1 1 1 1 0 0 0 0 0 0 1 1 2 2 4
3 3 3 2 2 2 2 2 2 3 2 2 2 2 2 2 2 2 1 1 1 1 2 2 2 2 1 1 1 2 2 1 1 1 0 0 0 0 1 0 0 1 2
3 3 2 3 1 1 1 1 1 1 1 2 2 2 2 2 2 1 1 1 1 1 1 1 1 2 2 1 2 2 2 2 2 1 1 1 1 0 0 0 0 1 1
4 3 3 2 2 1 1 1 1 1 1 1 1 2 2 2 1 1 1 1 1 1 1 1 1 1 1 2 1 1 2 3 3 2 2 1 1 1 0 0 1 1 1
4 4 3 2 2 1 2 2 2 2 2 2 2 2 2 2 2 1 1 1 1 1 0 0 1 1 1 1 1 1 1 1 1 2 2 2 2 1 1 0 0 1 1
5 4 3 2 2 2 2 3 3 2 1 0 0 1 2 2 2 2 1 1 1 1 1 0 1 1 1 1 1 1 0 1 1 1 2 2 2 1 1 1 1 1 1
5 4 3 3 2 2 2 2 3 2 1 0 1 2 2 2 2 2 2 1 1 1 1 1 1 1 1 1 1 0 1 1 1 1 1 2 2 2 1 1 1 1 1
3 4 4 4 2 2 2 2 2 3 1 1 1 1 1 2 2 3 2 2 1 1 0 0 1 1 1 1 1 1 1 1 1 1 1 1 1 2 2 1 1 1 1
Wind_Direction
234 223 220 220 213 203 192 181 175 173 169 164 161 157 154 152 152 155 159 161 165 167 166 166 168 166 165 167 168 165 168 171 172 171 171 170 170 172 173 175 176 175 171
220 222 221 211 199 187 182 178 172 171 170 167 164 162 159 156 156 158 158 160 164 167 168 168 169 170 172 176 175 171 175 175 173 172 172 173 174 174 176 181 181 174 173
188 226 217 189 180 177 175 174 172 172 171 166 164 165 164 163 161 162 162 163 167 169 170 172 174 174 178 183 181 178 181 181 174 173 175 168 170 173 179 185 183 177 177
182 229 215 179 173 170 168 169 171 172 170 167 165 165 166 166 166 167 166 169 172 174 178 180 182 183 185 186 185 184 184 181 177 179 174 166 175 180 186 187 185 180 180
65 280 241 186 174 169 166 169 171 170 168 167 165 164 165 165 166 164 166 174 177 180 185 189 191 192 189 186 186 190 191 188 184 179 164 170 181 188 191 191 190 187 185
15 302 264 201 183 172 170 170 163 157 161 166 163 159 161 164 164 165 171 177 183 190 191 192 197 200 197 194 197 199 197 191 181 169 169 180 191 199 198 197 194 192 186
327 318 309 191 177 173 171 168 158 150 149 152 155 160 165 170 170 174 178 183 188 191 196 200 204 208 202 204 209 212 203 192 175 170 179 191 199 205 204 201 199 196 192
40 341 356 103 136 158 167 170 163 158 155 156 161 165 169 173 171 173 182 189 193 199 201 205 215 222 218 217 221 224 215 200 185 184 191 204 207 207 206 206 204 200 199
48 31 11 20 58 144 164 171 171 163 164 160 160 162 165 164 165 170 182 198 201 206 211 218 226 228 226 226 228 227 218 203 189 186 203 212 214 211 210 212 207 207 203
41 26 12 15 21 26 46 152 162 162 155 145 148 156 159 155 158 167 181 207 215 224 219 225 234 234 230 227 228 222 212 204 185 194 205 211 211 211 209 212 208 208 203
24 9 3 20 29 24 36 98 118 133 130 129 138 136 124 95 97 111 145 213 225 237 241 239 237 232 233 231 224 219 213 178 178 194 203 212 211 209 208 209 207 207 205
352 355 9 27 33 39 50 59 60 71 64 60 59 61 63 64 58 60 57 2 333 320 303 275 246 222 227 210 221 235 161 159 173 195 207 210 210 210 209 209 209 207 207
299 12 23 29 37 57 57 62 65 65 60 59 60 59 66 58 49 39 34 5 359 7 353 343 338 55 107 134 155 152 141 148 164 193 200 198 201 204 206 208 209 206 207
58 34 44 61 68 68 77 68 72 72 67 65 63 68 79 75 63 56 48 15 8 6 360 10 26 58 73 105 124 122 115 136 152 171 188 198 205 207 208 209 209 208 209
79 53 58 72 81 79 79 71 79 87 91 81 62 59 93 110 92 69 50 32 8 18 22 24 40 61 71 93 135 137 136 157 168 175 194 204 209 208 211 211 212 213 212
102 67 71 80 91 94 92 89 72 74 81 80 66 49 67 98 103 102 76 36 11 15 39 41 45 66 64 78 79 121 148 152 147 204 214 218 219 214 216 218 219 220 217
139 82 77 95 85 91 89 81 78 68 75 73 61 51 58 86 99 97 88 48 11 22 51 55 46 59 63 61 45 53 102 122 150 232 217 198 231 232 235 235 231 230 229
129 97 79 97 95 93 89 76 71 63 66 60 50 49 66 85 94 93 81 44 25 51 63 65 51 63 58 51 31 25 46 57 6 273 179 180 204 217 246 253 251 245 241
133 112 95 83 95 99 86 73 68 62 57 45 42 42 47 58 72 87 79 41 40 56 54 65 60 78 69 38 48 41 44 54 17 27 94 104 198 206 216 256 266 273 261
118 110 108 91 76 85 82 69 59 53 45 39 34 32 42 46 58 71 65 33 47 58 49 59 68 59 79 52 55 45 35 22 34 34 352 31 89 216 213 222 311 299 289
114 115 125 115 94 92 93 88 73 47 31 25 21 27 33 40 59 79 61 44 50 62 55 53 81 70 57 60 67 39 21 25 25 10 359 18 2 324 126 189 263 280 291
150 150 146 141 135 121 131 120 105 91 49 20 355 12 17 25 30 79 93 73 56 62 50 54 76 78 47 49 82 71 8 2 11 14 15 42 19 31 13 268 246 255 272
162 165 162 158 147 132 115 94 81 60 38 25 12 4 8 14 19 30 54 74 77 103 88 56 85 110 82 36 50 115 128 248 318 349 10 20 19 34 6 1 274 267 265
183 170 159 153 133 124 126 122 122 122 125 246 350 344 1 16 19 32 48 66 69 73 75 24 86 104 118 100 34 36 103 162 174 326 345 359 7 21 355 339 329 318 300
179 169 161 146 130 123 115 129 132 130 157 49 36 28 12 10 15 20 29 45 55 52 30 39 77 96 114 135 132 113 90 65 116 168 291 331 352 354 341 322 331 351 333
171 166 158 148 148 142 138 144 148 150 142 82 47 29 355 352 1 9 20 26 34 37 15 30 90 112 115 123 119 122 148 163 181 170 212 285 320 326 333 344 342 331 328